Powrót do katalogu

CHEOPS

AktywnyNaukaSSO
NORAD 44874·PAYLOAD·🇪🇺 EU

Wystrzelony Dec 18, 2019 z Guiana Space Centre

Loading…

Następne Przeloty (najbliższe 24 godziny)

TLE

ŚwieżeSource: Space-Track

Epoka: Sep 14, 2026, 11:14 UTC

1 44874U 19092B   26257.46810840  .00000212  00000-0  51575-4 0  9993
2 44874  98.1512  84.5034 0010574 173.0807 187.0542 14.62014018358945

Śledź CHEOPS w czasie rzeczywistym z AllMySat

Download on the App Store